C/2015 X5 ( PanSTARRS )

Japanese version
Home page
Updated on April 1, 2017

---------------------------------------------------------------------

* Profile

Discovery Date December 6, 2015
Magnitude 21.3 mag
Discoverer Pan-STARRS 1 telescope (Haleakala)

* Pictures

* Orbital Elements

Epoch 2018 Jan. 2.0 TT = JDT 2458120.5
T 2017 Dec. 31.00970 TT                                 MPCW
q   6.8018475            (2000.0)            P               Q
z  -0.0004858      Peri.   27.75018     -0.25138571     +0.67027991
 +/-0.0000011      Node   122.31454     +0.66184702     -0.40733601
e   1.0033044      Incl.  124.29083     +0.70623208     +0.62032429
From 109 observations 2015 Dec. 6-2017 Feb. 25, mean residual 0".4.

* Magnitudes Graph

        m1 = 7.0 + 5 log d + 10.0 log r

---------------------------------------------------------------------

The orbital elements are published on M.P.E.C. 2017-E59.
The magnitudes graphs are made with Comet for Windows.

---------------------------------------------------------------------

Copyright(C) Seiichi Yoshida (comet@aerith.net). All rights reserved.